Regional Weather Roundup
Issued by NWS

Home | Current Version | Previous Version | Text Only | Print | Product List | Glossary Off
Versions: 1 2 3 4 5 6 7 8 9 10 11 12 13 14 15 16 17 18 19 20 21 22 23 24 25 26 27 28 29 30 31 32 33 34 35 36 37 38 39 40 41 42 43 44 45 46 47 48 49 50

000
ASUS43 KLOT 211109
RWRIL

ILLINOIS REGIONAL WEATHER ROUNDUP
NATIONAL WEATHER SERVICE CHICAGO/ROMEOVILLE IL
600 AM CDT SAT OCT 21 2017

NOTE: "FAIR" INDICATES FEW OR NO CLOUDS BELOW 12,000 FEET WITH NO
SIGNIFICANT WEATHER AND/OR OBSTRUCTIONS TO VISIBILITY.

* THESE STATIONS ARE NOT UNDER NWS QUALITY CONTROL. THEY ALSO MAY NOT
  REPORT WEATHER SUCH AS PRECIPITATION OR FOG.

ILZ001-002-007-009-015-016-024-211200-
NORTHWEST ILLINOIS

CITY           SKY/WX    TMP DP  RH WIND       PRES   REMARKS
MOLINE         CLOUDY    64  49  57 S16G26    29.94S
STERLING*      CLOUDY    62  51  67 VRB6        N/A
SAVANNA*       PTCLDY    60  50  70 S8        29.96R
$$

ILZ003-004-008-010-011-017-018-211200-
NORTH CENTRAL ILLINOIS

CITY           SKY/WX    TMP DP  RH WIND       PRES   REMARKS
ROCKFORD       CLOUDY    59  50  72 S13       30.01S
FREEPORT*      PTCLDY    59  49  69 S15       29.99S
ROCHELLE*      MOCLDY    58  50  75 S7        30.03R
DE KALB*       MOCLDY    57  50  77 S12       30.04R
PERU*          CLOUDY    59  49  69 S10       30.03S
$$

ILZ005-006-012>014-019>023-211200-
NORTHEAST ILLINOIS

CITY           SKY/WX    TMP DP  RH WIND       PRES   REMARKS
CHICAGO-OHARE  MOCLDY    60  49  66 S8        30.05S
CHICAGO-MIDWAY CLOUDY    62  50  64 S8        30.06F
AURORA         CLOUDY    57  50  77 SE7       30.04F
LANSING*       CLOUDY    58  51  76 S8        30.09R
JOLIET*        CLOUDY    61  51  70 S5        30.06S
WAUKEGAN       MOCLDY    62  49  62 S10       30.02F
DUPAGE AIRPORT CLOUDY    57  50  77 S9        30.04F
KANKAKEE*      CLOUDY    59  48  67 S7        30.10R
WHEELING       MOCLDY    62  50  64 S9        30.06S
MORRIS*        MOCLDY    58  49  72 SE7       30.04S
ROMEOVILLE*    CLOUDY    57  50  79 S8        30.07R
NORTHERLY ISL    N/A     64  47  53 S13         N/A
$$

LMZ740>746-211200-
SOUTHERN LAKE MICHIGAN

STATION/POSITION SKY/WX   TEMP    WIND        PRES    VSBY  WAVE
                          AIR SEA DIR/SP/G                  HT/PER
                          (F)     (DEG/KT/KT) (MB)    (MI)  (FT/S)
SOUTHERN BUOY              62 61  180/ 14/ 17 1017.8          2/ 4
WILMETTE HARBOR            62 60  170/ 10/ 14   N/A           2/ 3
HARRISON CRIB              64     190/ 18/ 19   N/A
BURNHAM HARBOR             63     200/ 10/ 14   N/A
CALUMET HARBOR             63     170/  9/ 13 1017.7F
BURNS HARBOR               62     180/ 13/ 18 1019.3R
MICHIGAN CITY              61     160/ 13/ 15   N/A
MICHIGAN CITY 6N           60 58  180/ 10/ 12   N/A           1/ 2
ST. JOSEPH                 61 59  180/ 10/ 14 1019.7          1/ 3
$$

ILZ025>027-034>036-040-047-049-050-058-095>099-211200-
WEST-CENTRAL ILLINOIS

CITY           SKY/WX    TMP DP  RH WIND       PRES   REMARKS
QUINCY         PTCLDY    63  51  65 S13       29.96F
GALESBURG*     CLOUDY    66  60  82 S8        29.99S
MACOMB*        PTCLDY    60  52  73 S12       30.00S
JACKSONVILLE*  CLOUDY    62  52  71 S8        30.02S
PITTSFIELD*    CLOUDY    62  53  73 S9        30.01R
$$

ILZ028>032-037-038-041>044-048-051>054-059>061-211200-
CENTRAL ILLINOIS

CITY           SKY/WX    TMP DP  RH WIND       PRES   REMARKS
PONTIAC        CLOUDY    60  52  75 S12       30.07R
BLOOMINGTON    MOCLDY    56  49  77 S10       30.08R
DECATUR        CLOUDY    58  49  72 S9        30.09R
PEORIA         CLOUDY    61  52  72 S12       30.03R
LACON*         CLOUDY    61  50  68 S8        30.02R
LINCOLN*       CLOUDY    60  51  73 S7        30.06R
SPRINGFIELD    CLOUDY    63  52  67 S13       30.04S
TAYLORVILLE    PTCLDY    56  49  77 SE8       30.07F
$$

ILZ033-039-045-046-055>057-062-063-211200-
EAST-CENTRAL ILLINOIS

CITY           SKY/WX    TMP DP  RH WIND       PRES   REMARKS
CHAMPAIGN      PTCLDY    54  47  77 SE9       30.11S
DANVILLE*      MOCLDY    54  48  80 S5        30.11R
RANTOUL*       CLOUDY    55  50  86 SE6       30.11R
MATTOON        PTCLDY    55  49  80 SE6       30.11R
PARIS*         MOCLDY    52  48  86 SE5       30.15R
$$

ILZ079-100>102-211200-
SOUTHWEST ILLINOIS

CITY           SKY/WX    TMP DP  RH WIND       PRES   REMARKS
ALTON          CLOUDY    55  52  89 CALM      30.06S
BELLEVILLE     CLEAR     59  51  76 SE6       30.10R
CAHOKIA*         N/A     63  51  65 S6        30.05S
SPARTA*        CLOUDY    61  51  70 SE3       30.09R
$$

ILZ064>066-069>071-074>076-080>082-084>086-088>090-092>094-211200-
SOUTH-CENTRAL ILLINOIS

CITY           SKY/WX    TMP DP  RH WIND       PRES   REMARKS
CARBONDALE     PTCLDY    59  51  75 S7        30.10R
CAIRO*         CLOUDY    61  51  70 SE7       30.11S
EFFINGHAM*     CLOUDY    54  50  86 E6        30.13R
MARION         CLOUDY    60  50  69 S5        30.12R
MT. VERNON     CLOUDY    52  49  89 CALM      30.12R
CENTRALIA*     MOCLDY    59  51  75 SE8       30.09S
SALEM*         PTCLDY    58  48  69 SE5       30.10S
METROPOLIS*    CLOUDY    57  50  78 CALM      30.14R
$$

ILZ067-068-072-073-078-083-087-091-211200-
SOUTHEAST ILLINOIS

CITY           SKY/WX    TMP DP  RH WIND       PRES   REMARKS
LAWRENCEVILLE  PTCLDY    54  49  83 SE5       30.15R
FLORA*         CLOUDY    51  48  90 SE3       30.12S
FAIRFIELD*     MOCLDY    57  48  72 SE3       30.12R
HARRISBURG*    MOCLDY    57  49  75 S6        30.12S
ROBINSON*      MOCLDY    47  46  95 CALM      30.15S
CARMI*         CLOUDY    51  48  90 CALM      30.13S
$$

ABBREVIATIONS USED IN REMARKS
   TC - TEMPERATURE IN CELSIUS
  WCI - WIND CHILL INDEX
   HX - HEAT INDEX
  VSB - VISIBILITY
$$





USA.gov is the U.S. government's official web portal to all federal, state and local government web resources and services.